This is the latest recevied weather packets stored in our database for station/object KB1QVF. If no packets are shown the sender has not sent any weather packets the latest 10 day(s).
| Time | Temp. | Humidity | Pressure | Rain* | Wind** | Luminosity | Snow |
|---|---|---|---|---|---|---|---|
| 1778073315 | 17.78° C | 71% | 1013 hPa | 0 mm | - | 481 W/m² | - |
| 1778073011 | 17.78° C | 72% | 1012.9 hPa | 0 mm | - | 435 W/m² | - |
| 1778072708 | 17.78° C | 74% | 1013 hPa | 0 mm | - | 364 W/m² | - |
| 1778072406 | 17.22° C | 74% | 1013.2 hPa | 0 mm | - | 404 W/m² | - |
| 1778072104 | 16.67° C | 76% | 1012.9 hPa | 0 mm | - | 336 W/m² | - |
| 1778071801 | 16.67° C | 77% | 1012.9 hPa | 0 mm | - | 268 W/m² | - |
| 1778071499 | 16.67° C | 77% | 1013.1 hPa | 0 mm | - | 181 W/m² | - |
| 1778071197 | 16.67° C | 77% | 1013.2 hPa | 0 mm | - | 219 W/m² | - |
| 1778070894 | 16.11° C | 79% | 1013.1 hPa | 0 mm | - | 266 W/m² | - |
| 1778070592 | 16.11° C | 79% | 1013 hPa | 0 mm | - | 163 W/m² | - |
| 1778070289 | 16.11° C | 79% | 1013 hPa | 0 mm | - | 166 W/m² | - |
| 1778069987 | 15.56° C | 80% | 1012.8 hPa | 0 mm | - | 315 W/m² | - |
| 1778069684 | 15.56° C | 81% | 1012.8 hPa | 0 mm | - | 186 W/m² | - |
| 1778069380 | 15.56° C | 80% | 1012.9 hPa | 0 mm | - | 155 W/m² | - |
| 1778069078 | 15.56° C | 81% | 1012.9 hPa | 0 mm | - | 172 W/m² | - |
| 1778068775 | 15° C | 82% | 1013 hPa | 0 mm | - | 179 W/m² | - |
| 1778068473 | 15.56° C | 82% | 1012.9 hPa | 0 mm | - | 162 W/m² | - |
| 1778068171 | 15° C | 83% | 1013.3 hPa | 0 mm | - | 135 W/m² | - |
| 1778067868 | 15° C | 85% | 1013.3 hPa | 0 mm | - | 135 W/m² | - |
| 1778067567 | 14.44° C | 86% | 1013.2 hPa | 0 mm | - | 108 W/m² | - |
| 1778067265 | 14.44° C | 87% | 1013.4 hPa | 0 mm | - | 89 W/m² | - |
| 1778066961 | 14.44° C | 86% | 1013.4 hPa | 0 mm | - | 44 W/m² | - |
| 1778066659 | 14.44° C | 86% | 1013.3 hPa | 0 mm | - | 41 W/m² | - |
| 1778066356 | 14.44° C | 86% | 1013.1 hPa | 0 mm | - | 53 W/m² | - |
| 1778066054 | 14.44° C | 87% | 1013.6 hPa | 0 mm | - | 75 W/m² | - |
* Rain latest hour (hover to see other rain measurements)
** Current wind speed in m/s (hover to see current wind gust speed)